This demonstration page uses our WeatherBlox Daily Observations layout. Learn more.

Left ArrowRight Arrow

Hourly Observations for November 16, 2019

Temp ( °F °C ) Dew Point ( °F °C ) Humidity (%) Winds ( mph kmh ) Pressure ( in mb ) Visibility ( mi km ) Precip ( " mm )
12:53 am 00:53 Clear 49 9.4 42 5.6 77 77 Calm 30.13 1020 10 16 0.00 0.00
1:53 am 01:53 Clear 59 15 45 7.2 60 60 NNW 8 13 30.13 1020 10 16 0.00 0.00
2:53 am 02:53 Clear 59 15 45 7.2 60 60 NNW 5 7 30.13 1020 10 16 0.00 0.00
3:53 am 03:53 Clear 58 14.4 45 7.2 62 62 NW 6 9 30.12 1020 10 16 0.00 0.00
4:53 am 04:53 Clear 56 13.3 44 6.7 65 65 NW 3 6 30.13 1020 10 16 0.00 0.00
5:53 am 05:53 Clear 57 13.9 44 6.7 62 62 NNW 5 7 30.13 1020 10 16 0.00 0.00
6:53 am 06:53 Clear 59 15 44 6.7 58 58 NNW 7 11 30.14 1021 10 16 0.00 0.00
7:53 am 07:53 Sunny 61 16.1 44 6.7 54 54 NNW 8 13 30.16 1021 10 16 0.00 0.00
8:53 am 08:53 Sunny 65 18.3 44 6.7 47 47 NNW 8 13 30.16 1021 10 16 0.00 0.00
9:53 am 09:53 Sunny 70 21.1 43 6.1 38 38 N 14 22 30.15 1021 10 16 0.00 0.00
10:53 am 10:53 Sunny 72 22.2 42 5.6 34 34 N 9 15 30.14 1021 10 16 0.00 0.00
11:53 am 11:53 Sunny 75 23.9 40 4.4 28 28 N 14 22 30.10 1019 10 16 0.00 0.00
12:53 pm 12:53 Sunny 77 25 39 3.9 26 26 N 10 17 30.08 1019 10 16 0.00 0.00
1:53 pm 13:53 Sunny 79 26.1 37 2.8 22 22 N 12 19 30.06 1018 10 16 0.00 0.00
2:53 pm 14:53 Sunny 80 26.7 36 2.2 20 20 NNW 6 9 30.05 1018 10 16 0.00 0.00
3:53 pm 15:53 Sunny 80 26.7 35 1.7 20 20 NNW 5 7 30.05 1018 10 16 0.00 0.00
4:53 pm 16:53 Clear 75 23.9 35 1.7 23 23 NNW 5 7 30.06 1018 10 16 0.00 0.00
5:53 pm 17:53 Clear 73 22.8 34 1.1 24 24 N 8 13 30.07 1018 10 16 0.00 0.00
6:53 pm 18:53 Clear 71 21.7 35 1.7 27 27 NNW 9 15 30.08 1019 10 16 0.00 0.00
7:53 pm 19:53 Clear 71 21.7 34 1.1 26 26 N 8 13 30.09 1019 10 16 0.00 0.00
8:53 pm 20:53 Clear 67 19.4 34 1.1 30 30 NNW 6 9 30.10 1019 10 16 0.00 0.00
9:53 pm 21:53 Clear 70 21.1 35 1.7 28 28 N 9 15 30.10 1019 10 16 0.00 0.00
10:53 pm 22:53 Clear 70 21.1 33 0.6 26 26 N 12 19 30.09 1019 10 16 0.00 0.00
11:53 pm 23:53 Clear 70 21.1 33 0.6 26 26 N 12 19 30.09 1019 10 16 0.00 0.00

Powered by AerisWeather